Chicago Midway, IL

9:48 AM CDT on September 25, 2017 (GMT -0500)
Chicago-Midway

Weather History for KMDW - November, 2012

Change the Weather History Date:

Friday, November 16, 2012

  Actual Average Record
Temperature  
Mean Temperature 43 °F 41 °F  
Max Temperature 54 °F 48 °F 73 °F (1952)
Min Temperature 32 °F 34 °F 5 °F (1933)
Degree Days  
Heating Degree Days 22 24  
Month to date heating degree days 350 322  
Since 1 July heating degree days 792 753  
Cooling Degree Days 0 0  
Month to date cooling degree days 0 0  
Year to date cooling degree days 1473 1045  
Moisture  
Dew Point 28 °F    
Average Humidity 57    
Maximum Humidity 75    
Minimum Humidity 23    
Precipitation  
Precipitation 0.00 in 0.12 in 1.29 in (1928)
Month to date precipitation 0.79 1.85  
Year to date precipitation 24.57 34.95  
Sea Level Pressure  
Sea Level Pressure 30.47 in    
Wind  
Wind Speed 3 mph (South)    
Max Wind Speed 8 mph    
Max Gust Speed 18 mph    
Visibility 9 miles    
Events      
T = Trace of Precipitation, MM = Missing Value Source: NWS Daily Summary

Daily Weather History Graph

Daily Weather History Graph

Search for Another Location

Airport or City:

Trip Planner

Search our weather history database for the weather conditions in past years. The results will help you decide how hot, cold, wet, or windy it might be!

Date:

Astronomy

Nov. 16, 2012 Rise Set
Actual Time 6:42 AM CST 4:29 PM CST
Civil Twilight 6:12 AM CST 4:59 PM CST
Nautical Twilight 5:38 AM CST 5:32 PM CST
Astronomical Twilight 5:05 AM CST 6:05 PM CST
Moon 9:37 AM CST (11/16) 7:27 PM CST (11/16)
Length of Visible Light 10h 46m
Length of Day
9h 46m
Waxing Crescent, 12% of the Moon is Illuminated
Nov 16
Waxing Crescent
Nov 20
First Quarter
Nov 28
Full
Dec 6
Last Quarter
Dec 13
New

Hourly Weather History & Observations

Time (CST) Temp. Windchill Dew Point Humidity Pressure Visibility Wind Dir Wind Speed Gust Speed Precip Events Conditions
12:51 AM 36.0 °F - 27.0 °F 70% 30.40 in 9.0 mi Calm Calm - N/A   Clear
1:51 AM 35.6 °F - 26.6 °F 70% 30.38 in 8.0 mi Calm Calm - N/A   Clear
2:51 AM 35.6 °F - 26.6 °F 70% 30.38 in 9.0 mi Calm Calm - N/A   Clear
3:51 AM 32.0 °F - 25.0 °F 75% 30.42 in 9.0 mi Calm Calm - N/A   Clear
4:51 AM 34.0 °F - 27.0 °F 75% 30.43 in 8.0 mi Calm Calm - N/A   Clear
5:51 AM 35.6 °F - 26.6 °F 70% 30.41 in 8.0 mi Calm Calm - N/A   Clear
6:51 AM 33.1 °F - 26.1 °F 75% 30.45 in 10.0 mi Calm Calm - N/A   Clear
7:51 AM 35.1 °F 32.2 °F 27.0 °F 72% 30.48 in 10.0 mi South 3.5 mph - N/A   Clear
8:51 AM 39.0 °F - 28.0 °F 65% 30.49 in 10.0 mi Calm Calm - N/A   Clear
9:51 AM 42.1 °F 39.2 °F 28.0 °F 58% 30.50 in 10.0 mi SSW 4.6 mph - N/A   Clear
10:51 AM 46.9 °F - 28.0 °F 48% 30.49 in 10.0 mi SSW 3.5 mph - N/A   Clear
11:51 AM 50.0 °F - 28.0 °F 43% 30.48 in 10.0 mi Variable 3.5 mph - N/A   Clear
12:51 PM 53.1 °F - 27.0 °F 37% 30.47 in 10.0 mi South 4.6 mph - N/A   Clear
1:51 PM 54.0 °F - 27.0 °F 35% 30.46 in 10.0 mi Variable 3.5 mph - N/A   Clear
2:51 PM 54.0 °F - 27.0 °F 35% 30.47 in 10.0 mi South 4.6 mph - N/A   Clear
3:51 PM 53.1 °F - 27.0 °F 37% 30.48 in 10.0 mi South 4.6 mph - N/A   Clear
4:51 PM 52.0 °F - 27.0 °F 38% 30.48 in 10.0 mi SSW 4.6 mph - N/A   Partly Cloudy
5:51 PM 45.0 °F 42.6 °F 30.0 °F 56% 30.49 in 9.0 mi SE 4.6 mph - N/A   Clear
6:51 PM 46.0 °F 43.9 °F 30.9 °F 56% 30.50 in 10.0 mi NE 4.6 mph - N/A   Clear
7:51 PM 46.0 °F - 34.0 °F 63% 30.50 in 9.0 mi Calm Calm - N/A   Clear
8:51 PM 45.0 °F 43.5 °F 34.0 °F 65% 30.50 in 9.0 mi ESE 3.5 mph - N/A   Clear
9:51 PM 44.1 °F 42.5 °F 30.9 °F 60% 30.50 in 9.0 mi SSE 3.5 mph - N/A   Clear
10:51 PM 42.1 °F 39.2 °F 30.0 °F 62% 30.49 in 9.0 mi South 4.6 mph - N/A   Clear
11:51 PM 39.9 °F 37.8 °F 28.0 °F 63% 30.50 in 9.0 mi SSW 3.5 mph - N/A   Clear